| time (UTC) | temp F | wind direction | speed MPH | gust MPH | rain 1hr in | rain 24hr in | rain mn in | humidity % | barometer mb |
| 20260507003232 | 75 | 245 | 8.0 | 9.0 | 0.00 | 0.00 | 0.00 | 54 | 1016.8 |
| 20260507002728 | 75 | 185 | 6.0 | 7.0 | 0.00 | 0.00 | 0.00 | 54 | 1016.5 |
| 20260507002224 | 74 | 240 | 5.0 | 6.0 | 0.00 | 0.00 | 0.00 | 54 | 1016.5 |
| 20260507001721 | 74 | 277 | 8.0 | 10.0 | 0.00 | 0.00 | 0.00 | 54 | 1016.8 |
| 20260507001219 | 75 | 244 | 4.0 | 5.0 | 0.00 | 0.00 | 0.00 | 54 | 1016.5 |
| 20260507000715 | 75 | 303 | 5.0 | 9.0 | 0.00 | 0.00 | 0.00 | 53 | 1016.0 |
| 20260507000212 | 75 | 271 | 9.0 | 10.0 | 0.00 | 0.00 | 0.00 | 52 | 1016.5 |
| 20260506235708 | 76 | 269 | 7.0 | 8.0 | 0.00 | 0.00 | 0.00 | 53 | 1016.5 |
| 20260506235203 | 77 | 257 | 4.0 | 5.0 | 0.00 | 0.00 | 0.00 | 51 | 1016.5 |
| 20260506234700 | 77 | 253 | 7.0 | 8.0 | 0.00 | 0.00 | 0.00 | 52 | 1016.5 |
| 20260506234157 | 77 | 3 | 4.0 | 7.0 | 0.00 | 0.00 | 0.00 | 50 | 1016.5 |
| 20260506233655 | 77 | 280 | 5.0 | 6.0 | 0.00 | 0.00 | 0.00 | 49 | 1016.5 |
| 20260506233151 | 77 | 243 | 9.0 | 14.0 | 0.00 | 0.00 | 0.00 | 49 | 1016.5 |
| 20260506232647 | 76 | 268 | 7.0 | 9.0 | 0.00 | 0.00 | 0.00 | 50 | 1016.5 |
| 20260506232143 | 76 | 247 | 8.0 | 8.0 | 0.00 | 0.00 | 0.00 | 49 | 1016.5 |
| 20260506231640 | 76 | 279 | 5.0 | 7.0 | 0.00 | 0.00 | 0.00 | 49 | 1016.5 |
| 20260506231139 | 76 | 296 | 5.0 | 8.0 | 0.00 | 0.00 | 0.00 | 49 | 1016.5 |
| 20260506230635 | 76 | 251 | 10.0 | 11.0 | 0.00 | 0.00 | 0.00 | 48 | 1016.5 |
| 20260506230132 | 76 | 307 | 5.0 | 7.0 | 0.00 | 0.00 | 0.00 | 49 | 1016.5 |
| 20260506225628 | 76 | 263 | 5.0 | 6.0 | 0.00 | 0.00 | 0.00 | 49 | 1016.8 |
| 20260506225125 | 76 | 287 | 6.0 | 9.0 | 0.00 | 0.00 | 0.00 | 48 | 1016.5 |
| 20260506224622 | 75 | 245 | 5.0 | 8.0 | 0.00 | 0.00 | 0.00 | 49 | 1016.8 |
| 20260506224118 | 76 | 278 | 9.0 | 10.0 | 0.00 | 0.00 | 0.00 | 49 | 1016.8 |
| 20260506223615 | 76 | 264 | 5.0 | 8.0 | 0.00 | 0.00 | 0.00 | 49 | 1016.8 |
| 20260506223111 | 76 | 309 | 8.0 | 8.0 | 0.00 | 0.00 | 0.00 | 49 | 1016.8 |
| 20260506222608 | 76 | 211 | 5.0 | 6.0 | 0.00 | 0.00 | 0.00 | 49 | 1017.1 |
| 20260506222104 | 75 | 325 | 7.0 | 8.0 | 0.00 | 0.00 | 0.00 | 49 | 1016.8 |
| 20260506221602 | 75 | 236 | 7.0 | 8.0 | 0.00 | 0.00 | 0.00 | 50 | 1017.1 |
| 20260506221100 | 75 | 274 | 7.0 | 8.0 | 0.00 | 0.00 | 0.00 | 49 | 1017.1 |
| 20260506220555 | 75 | 281 | 9.0 | 11.0 | 0.00 | 0.00 | 0.00 | 50 | 1017.1 |
| 20260506220051 | 75 | 336 | 4.0 | 6.0 | 0.00 | 0.00 | 0.00 | 51 | 1017.1 |
| 20260506215548 | 75 | 253 | 7.0 | 8.0 | 0.00 | 0.00 | 0.00 | 50 | 1017.1 |
| 20260506215044 | 75 | 249 | 7.0 | 8.0 | 0.00 | 0.00 | 0.00 | 50 | 1017.1 |
| 20260506214541 | 75 | 251 | 7.0 | 8.0 | 0.00 | 0.00 | 0.00 | 50 | 1017.5 |
| 20260506214038 | 74 | 238 | 5.0 | 6.0 | 0.00 | 0.00 | 0.00 | 50 | 1017.5 |
| 20260506213536 | 74 | 275 | 5.0 | 6.0 | 0.00 | 0.00 | 0.00 | 51 | 1017.5 |
| 20260506213033 | 75 | 296 | 6.0 | 8.0 | 0.00 | 0.00 | 0.00 | 51 | 1017.5 |
| 20260506212530 | 74 | 246 | 5.0 | 6.0 | 0.00 | 0.00 | 0.00 | 51 | 1017.5 |
| 20260506212025 | 74 | 220 | 7.0 | 8.0 | 0.00 | 0.00 | 0.00 | 51 | 1017.5 |
| 20260506211521 | 74 | 231 | 5.0 | 6.0 | 0.00 | 0.00 | 0.00 | 51 | 1018.2 |
| 20260506211018 | 74 | 276 | 5.0 | 6.0 | 0.00 | 0.00 | 0.00 | 49 | 1017.8 |
| 20260506210515 | 73 | 298 | 3.0 | 3.0 | 0.00 | 0.00 | 0.00 | 50 | 1017.8 |
| 20260506210011 | 73 | 319 | 7.0 | 8.0 | 0.00 | 0.00 | 0.00 | 50 | 1018.2 |
| 20260506205508 | 73 | 333 | 5.0 | 7.0 | 0.00 | 0.00 | 0.00 | 50 | 1017.8 |
| 20260506205003 | 74 | 295 | 6.0 | 7.0 | 0.00 | 0.00 | 0.00 | 50 | 1017.8 |
| 20260506204502 | 73 | 347 | 5.0 | 6.0 | 0.00 | 0.00 | 0.00 | 50 | 1018.2 |
| 20260506203958 | 72 | 332 | 3.0 | 6.0 | 0.00 | 0.00 | 0.00 | 51 | 1018.2 |
| 20260506203456 | 72 | 247 | 3.0 | 5.0 | 0.00 | 0.00 | 0.00 | 52 | 1018.2 |
| 20260506202953 | 72 | 224 | 5.0 | 6.0 | 0.00 | 0.00 | 0.00 | 52 | 1018.2 |
| 20260506202450 | 73 | 312 | 3.0 | 3.0 | 0.00 | 0.00 | 0.00 | 52 | 1018.5 |
| 20260506201946 | 72 | 286 | 2.0 | 3.0 | 0.00 | 0.00 | 0.00 | 51 | 1018.5 |
| 20260506201444 | 72 | 265 | 5.0 | 6.0 | 0.00 | 0.00 | 0.00 | 52 | 1018.5 |
| 20260506200940 | 71 | 299 | 4.0 | 5.0 | 0.00 | 0.00 | 0.00 | 51 | 1018.5 |
| 20260506200437 | 71 | 347 | 4.0 | 6.0 | 0.00 | 0.00 | 0.00 | 51 | 1018.5 |
| 20260506195933 | 70 | 348 | 4.0 | 8.0 | 0.00 | 0.00 | 0.00 | 53 | 1018.8 |
| 20260506195430 | 71 | 281 | 5.0 | 6.0 | 0.00 | 0.00 | 0.00 | 51 | 1018.5 |
| 20260506194927 | 71 | 256 | 6.0 | 8.0 | 0.00 | 0.00 | 0.00 | 51 | 1018.8 |
| 20260506194424 | 72 | 276 | 3.0 | 5.0 | 0.00 | 0.00 | 0.00 | 51 | 1018.8 |
| 20260506193921 | 72 | 294 | 2.0 | 2.0 | 0.00 | 0.00 | 0.00 | 51 | 1019.2 |
| 20260506193418 | 71 | 255 | 2.0 | 2.0 | 0.00 | 0.00 | 0.00 | 50 | 1019.2 |
| 20260506192914 | 70 | 251 | 4.0 | 5.0 | 0.00 | 0.00 | 0.00 | 52 | 1019.2 |
| 20260506192411 | 70 | 239 | 4.0 | 5.0 | 0.00 | 0.00 | 0.00 | 52 | 1019.2 |
| 20260506191908 | 69 | 133 | 5.0 | 5.0 | 0.00 | 0.00 | 0.00 | 51 | 1019.2 |
| 20260506191404 | 69 | 314 | 4.0 | 5.0 | 0.00 | 0.00 | 0.00 | 52 | 1019.2 |
| 20260506190902 | 69 | 278 | 1.0 | 1.0 | 0.00 | 0.00 | 0.00 | 53 | 1019.2 |
| 20260506190358 | 69 | 333 | 2.0 | 2.0 | 0.00 | 0.00 | 0.00 | 55 | 1019.2 |
| 20260506185855 | 68 | 248 | 1.0 | 2.0 | 0.00 | 0.00 | 0.00 | 53 | 1019.6 |
| 20260506185352 | 68 | 218 | 5.0 | 6.0 | 0.00 | 0.00 | 0.00 | 54 | 1019.6 |
| 20260506184849 | 67 | 97 | 3.0 | 3.0 | 0.00 | 0.00 | 0.00 | 55 | 1019.6 |
| 20260506184346 | 68 | 257 | 3.0 | 5.0 | 0.00 | 0.00 | 0.00 | 55 | 1019.6 |
| 20260506183843 | 66 | 343 | 2.0 | 2.0 | 0.00 | 0.00 | 0.00 | 56 | 1020.0 |
| 20260506183338 | 66 | 210 | 5.0 | 6.0 | 0.00 | 0.00 | 0.00 | 56 | 1020.0 |
| 20260506182836 | 66 | 265 | 3.0 | 6.0 | 0.00 | 0.00 | 0.00 | 56 | 1020.0 |
| 20260506182333 | 66 | 263 | 2.0 | 2.0 | 0.00 | 0.00 | 0.00 | 56 | 1020.0 |
| 20260506181831 | 66 | 273 | 3.0 | 3.0 | 0.00 | 0.00 | 0.00 | 58 | 1020.0 |
| 20260506181328 | 67 | 238 | 2.0 | 3.0 | 0.00 | 0.00 | 0.00 | 56 | 1020.0 |
| 20260506180825 | 66 | 248 | 0.0 | 1.0 | 0.00 | 0.00 | 0.00 | 57 | 1020.0 |
| 20260506180321 | 65 | 250 | 2.0 | 3.0 | 0.00 | 0.00 | 0.00 | 60 | 1020.0 |
| 20260506175818 | 66 | 239 | 3.0 | 5.0 | 0.00 | 0.00 | 0.00 | 58 | 1019.6 |
| 20260506175315 | 66 | 241 | 3.0 | 3.0 | 0.00 | 0.00 | 0.00 | 59 | 1020.0 |
| 20260506174812 | 64 | 290 | 1.0 | 1.0 | 0.00 | 0.00 | 0.00 | 61 | 1020.0 |
| 20260506174309 | 64 | 276 | 1.0 | 2.0 | 0.00 | 0.00 | 0.00 | 62 | 1020.0 |
| 20260506173807 | 64 | 270 | 3.0 | 3.0 | 0.00 | 0.00 | 0.00 | 61 | 1020.3 |
| 20260506173303 | 65 | 220 | 2.0 | 3.0 | 0.00 | 0.00 | 0.00 | 60 | 1020.0 |
| 20260506172800 | 64 | 86 | 3.0 | 3.0 | 0.00 | 0.00 | 0.00 | 61 | 1020.0 |
| 20260506172257 | 64 | 305 | 4.0 | 5.0 | 0.00 | 0.00 | 0.00 | 62 | 1020.0 |
| 20260506171754 | 64 | 275 | 1.0 | 2.0 | 0.00 | 0.00 | 0.00 | 61 | 1020.0 |
| 20260506171251 | 63 | 11 | 2.0 | 3.0 | 0.00 | 0.00 | 0.00 | 63 | 1020.0 |
| 20260506170743 | 62 | 88 | 2.0 | 3.0 | 0.00 | 0.00 | 0.00 | 65 | 1020.0 |
| 20260506170239 | 62 | 240 | 2.0 | 2.0 | 0.00 | 0.00 | 0.00 | 64 | 1020.0 |
| 20260506165738 | 61 | 279 | 1.0 | 1.0 | 0.00 | 0.00 | 0.00 | 66 | 1020.0 |
| 20260506165235 | 62 | 191 | 4.0 | 5.0 | 0.00 | 0.00 | 0.00 | 65 | 1020.0 |
| 20260506164732 | 62 | 242 | 2.0 | 2.0 | 0.00 | 0.00 | 0.00 | 67 | 1020.3 |
| 20260506164229 | 61 | 250 | 2.0 | 3.0 | 0.00 | 0.00 | 0.00 | 66 | 1020.0 |
| 20260506163726 | 61 | 327 | 1.0 | 1.0 | 0.00 | 0.00 | 0.00 | 67 | 1020.0 |
| 20260506163220 | 61 | 203 | 6.0 | 6.0 | 0.00 | 0.00 | 0.00 | 68 | 1020.0 |
| 20260506162717 | 62 | 295 | 1.0 | 2.0 | 0.00 | 0.00 | 0.00 | 67 | 1020.0 |
| 20260506162214 | 61 | 271 | 0.0 | 1.0 | 0.00 | 0.00 | 0.00 | 68 | 1020.0 |
| 20260506161711 | 61 | 93 | 3.0 | 5.0 | 0.00 | 0.00 | 0.00 | 67 | 1020.0 |
| 20260506161209 | 60 | 304 | 0.0 | 0.0 | 0.00 | 0.00 | 0.00 | 70 | 1020.0 |
| 20260506160706 | 59 | 272 | 2.0 | 2.0 | 0.00 | 0.00 | 0.00 | 69 | 1020.3 |
| 20260506160202 | 59 | 295 | 0.0 | 0.0 | 0.00 | 0.00 | 0.00 | 69 | 1020.0 |
| 20260506155701 | 59 | 260 | 2.0 | 2.0 | 0.00 | 0.00 | 0.00 | 70 | 1020.0 |
| 20260506155158 | 59 | 287 | 0.0 | 0.0 | 0.00 | 0.00 | 0.00 | 71 | 1020.0 |
| 20260506153305 | 59 | 293 | 0.0 | 0.0 | 0.00 | 0.00 | 0.00 | 72 | 1020.0 |
| 20260506152803 | 58 | 291 | 0.0 | 0.0 | 0.00 | 0.00 | 0.00 | 73 | 1020.0 |
| 20260506152300 | 59 | 282 | 1.0 | 1.0 | 0.00 | 0.00 | 0.00 | 72 | 1020.3 |
| 20260506151759 | 58 | 287 | 0.0 | 1.0 | 0.00 | 0.00 | 0.00 | 74 | 1020.0 |
| 20260506151255 | 57 | 294 | 0.0 | 0.0 | 0.00 | 0.00 | 0.00 | 76 | 1020.3 |
| 20260506150751 | 57 | 290 | 0.0 | 0.0 | 0.00 | 0.00 | 0.00 | 75 | 1020.0 |
| 20260506150249 | 56 | 282 | 1.0 | 1.0 | 0.00 | 0.00 | 0.00 | 76 | 1020.0 |
| 20260506145745 | 56 | 285 | 0.0 | 1.0 | 0.00 | 0.00 | 0.00 | 77 | 1020.3 |
| 20260506145242 | 55 | 292 | 1.0 | 1.0 | 0.00 | 0.00 | 0.00 | 77 | 1020.3 |
| 20260506144739 | 55 | 247 | 3.0 | 3.0 | 0.00 | 0.00 | 0.00 | 77 | 1020.3 |
| 20260506144236 | 55 | 256 | 3.0 | 3.0 | 0.00 | 0.00 | 0.00 | 78 | 1020.0 |
| 20260506143734 | 55 | 236 | 3.0 | 3.0 | 0.00 | 0.00 | 0.00 | 78 | 1019.6 |
| 20260506143231 | 55 | 258 | 2.0 | 2.0 | 0.00 | 0.00 | 0.00 | 78 | 1019.6 |
| 20260506142730 | 56 | 287 | 0.0 | 0.0 | 0.00 | 0.00 | 0.00 | 78 | 1020.0 |
| 20260506142227 | 56 | 290 | 0.0 | 0.0 | 0.00 | 0.00 | 0.00 | 75 | 1020.0 |
| 20260506141725 | 56 | 300 | 0.0 | 0.0 | 0.00 | 0.00 | 0.00 | 75 | 1020.0 |
| 20260506141223 | 54 | 303 | 0.0 | 0.0 | 0.00 | 0.00 | 0.00 | 77 | 1020.0 |
| 20260506140721 | 52 | 307 | 0.0 | 0.0 | 0.00 | 0.00 | 0.00 | 79 | 1020.0 |
| 20260506140217 | 52 | 309 | 0.0 | 0.0 | 0.00 | 0.00 | 0.00 | 80 | 1020.0 |
| 20260506135714 | 51 | 315 | 0.0 | 0.0 | 0.00 | 0.00 | 0.00 | 80 | 1020.0 |
| 20260506135210 | 51 | 315 | 0.0 | 0.0 | 0.00 | 0.00 | 0.00 | 82 | 1020.0 |
| 20260506134707 | 50 | 314 | 0.0 | 0.0 | 0.00 | 0.00 | 0.00 | 82 | 1019.6 |
| 20260506134203 | 50 | 309 | 0.0 | 0.0 | 0.00 | 0.00 | 0.00 | 83 | 1020.0 |
| 20260506133701 | 50 | 308 | 0.0 | 0.0 | 0.00 | 0.00 | 0.00 | 84 | 1019.6 |
| 20260506133157 | 49 | 311 | 1.0 | 1.0 | 0.00 | 0.00 | 0.00 | 85 | 1019.6 |
| 20260506132655 | 49 | 301 | 0.0 | 0.0 | 0.00 | 0.00 | 0.00 | 86 | 1019.6 |
| 20260506132151 | 49 | 303 | 0.0 | 0.0 | 0.00 | 0.00 | 0.00 | 86 | 1019.2 |
| 20260506131649 | 48 | 306 | 0.0 | 0.0 | 0.00 | 0.00 | 0.00 | 86 | 1019.2 |
| 20260506131145 | 48 | 304 | 0.0 | 0.0 | 0.00 | 0.00 | 0.00 | 87 | 1019.2 |
| 20260506130642 | 48 | 305 | 0.0 | 0.0 | 0.00 | 0.00 | 0.00 | 87 | 1019.2 |
| 20260506130139 | 48 | 298 | 0.0 | 0.0 | 0.00 | 0.00 | 0.00 | 87 | 1019.2 |
| 20260506125637 | 48 | 299 | 1.0 | 1.0 | 0.00 | 0.00 | 0.00 | 87 | 1019.2 |
| 20260506125135 | 48 | 301 | 0.0 | 0.0 | 0.00 | 0.00 | 0.00 | 87 | 1019.2 |
| 20260506124633 | 48 | 316 | 0.0 | 0.0 | 0.00 | 0.00 | 0.00 | 87 | 1019.2 |
| 20260506124130 | 48 | 314 | 0.0 | 0.0 | 0.00 | 0.00 | 0.00 | 87 | 1019.2 |
| 20260506123628 | 48 | 313 | 0.0 | 0.0 | 0.00 | 0.00 | 0.00 | 87 | 1018.8 |
| 20260506123126 | 48 | 314 | 0.0 | 0.0 | 0.00 | 0.00 | 0.00 | 88 | 1018.8 |
| 20260506122622 | 48 | 309 | 0.0 | 0.0 | 0.00 | 0.00 | 0.00 | 87 | 1019.2 |
| 20260506122120 | 48 | 300 | 0.0 | 0.0 | 0.00 | 0.00 | 0.00 | 87 | 1019.2 |
| 20260506121618 | 48 | 313 | 0.0 | 0.0 | 0.00 | 0.00 | 0.00 | 87 | 1018.8 |
| 20260506121114 | 48 | 311 | 0.0 | 0.0 | 0.00 | 0.00 | 0.00 | 87 | 1018.8 |
| 20260506120612 | 48 | 310 | 0.0 | 0.0 | 0.00 | 0.00 | 0.00 | 88 | 1019.2 |
| 20260506120109 | 48 | 305 | 0.0 | 0.0 | 0.00 | 0.00 | 0.00 | 88 | 1018.8 |
| 20260506115608 | 48 | 307 | 0.0 | 0.0 | 0.00 | 0.00 | 0.00 | 88 | 1018.8 |
| 20260506115105 | 48 | 314 | 0.0 | 0.0 | 0.00 | 0.00 | 0.00 | 88 | 1018.8 |
| 20260506114602 | 48 | 313 | 0.0 | 0.0 | 0.00 | 0.00 | 0.00 | 88 | 1018.8 |
| 20260506114100 | 48 | 312 | 0.0 | 0.0 | 0.00 | 0.00 | 0.00 | 88 | 1018.8 |
| 20260506113558 | 48 | 304 | 0.0 | 0.0 | 0.00 | 0.00 | 0.00 | 88 | 1019.2 |
| 20260506113055 | 49 | 305 | 0.0 | 0.0 | 0.00 | 0.00 | 0.00 | 87 | 1018.8 |
| 20260506112551 | 49 | 307 | 0.0 | 0.0 | 0.00 | 0.00 | 0.00 | 88 | 1018.8 |
| 20260506112049 | 49 | 310 | 0.0 | 0.0 | 0.00 | 0.00 | 0.00 | 88 | 1019.2 |
| 20260506111547 | 49 | 309 | 0.0 | 0.0 | 0.00 | 0.00 | 0.00 | 88 | 1018.8 |
| 20260506111044 | 48 | 307 | 0.0 | 0.0 | 0.00 | 0.00 | 0.00 | 88 | 1018.8 |
| 20260506110542 | 48 | 305 | 0.0 | 0.0 | 0.00 | 0.00 | 0.00 | 87 | 1018.8 |
| 20260506110039 | 48 | 306 | 0.0 | 0.0 | 0.00 | 0.00 | 0.00 | 88 | 1018.8 |
| 20260506105535 | 48 | 306 | 0.0 | 0.0 | 0.00 | 0.00 | 0.00 | 87 | 1018.5 |
| 20260506105032 | 48 | 300 | 0.0 | 0.0 | 0.00 | 0.00 | 0.00 | 87 | 1018.8 |
| 20260506104530 | 48 | 300 | 0.0 | 0.0 | 0.00 | 0.00 | 0.00 | 87 | 1018.8 |
| 20260506104028 | 49 | 300 | 0.0 | 0.0 | 0.00 | 0.00 | 0.00 | 86 | 1018.8 |
| 20260506103525 | 49 | 305 | 0.0 | 0.0 | 0.00 | 0.00 | 0.00 | 86 | 1018.8 |
| 20260506103021 | 49 | 301 | 0.0 | 0.0 | 0.00 | 0.00 | 0.00 | 86 | 1018.8 |
| 20260506102520 | 49 | 306 | 0.0 | 0.0 | 0.00 | 0.00 | 0.00 | 86 | 1018.8 |
| 20260506102017 | 49 | 303 | 0.0 | 0.0 | 0.00 | 0.00 | 0.00 | 86 | 1018.8 |
| 20260506101513 | 49 | 302 | 0.0 | 0.0 | 0.00 | 0.00 | 0.00 | 86 | 1018.8 |
| 20260506101010 | 49 | 303 | 0.0 | 0.0 | 0.00 | 0.00 | 0.00 | 86 | 1018.5 |
| 20260506100509 | 49 | 302 | 0.0 | 0.0 | 0.00 | 0.00 | 0.00 | 86 | 1018.8 |
| 20260506100007 | 49 | 305 | 0.0 | 0.0 | 0.00 | 0.00 | 0.00 | 86 | 1018.8 |
| 20260506095505 | 49 | 306 | 0.0 | 0.0 | 0.00 | 0.00 | 0.00 | 85 | 1018.8 |
| 20260506095000 | 49 | 305 | 0.0 | 0.0 | 0.00 | 0.00 | 0.00 | 85 | 1018.8 |
| 20260506094459 | 49 | 308 | 0.0 | 0.0 | 0.00 | 0.00 | 0.00 | 86 | 1018.8 |
| 20260506093956 | 49 | 303 | 0.0 | 0.0 | 0.00 | 0.00 | 0.00 | 85 | 1018.8 |
| 20260506093455 | 49 | 302 | 0.0 | 0.0 | 0.00 | 0.00 | 0.00 | 85 | 1018.8 |
| 20260506092952 | 50 | 302 | 0.0 | 0.0 | 0.00 | 0.00 | 0.00 | 84 | 1018.8 |
| 20260506092450 | 50 | 303 | 0.0 | 0.0 | 0.00 | 0.00 | 0.00 | 84 | 1018.8 |
| 20260506091946 | 50 | 315 | 0.0 | 0.0 | 0.00 | 0.00 | 0.00 | 84 | 1018.8 |
| 20260506091444 | 50 | 302 | 0.0 | 0.0 | 0.00 | 0.00 | 0.00 | 83 | 1018.8 |
| 20260506090941 | 50 | 307 | 1.0 | 1.0 | 0.00 | 0.00 | 0.00 | 83 | 1019.2 |
| 20260506090439 | 50 | 327 | 2.0 | 2.0 | 0.00 | 0.00 | 0.00 | 83 | 1018.8 |
| 20260506085935 | 50 | 312 | 1.0 | 1.0 | 0.00 | 0.00 | 0.00 | 83 | 1018.8 |
| 20260506085432 | 50 | 323 | 2.0 | 2.0 | 0.00 | 0.00 | 0.00 | 83 | 1018.8 |
| 20260506084928 | 50 | 314 | 0.0 | 0.0 | 0.00 | 0.00 | 0.00 | 84 | 1018.8 |
| 20260506084426 | 50 | 304 | 0.0 | 0.0 | 0.00 | 0.00 | 0.00 | 84 | 1018.8 |
| 20260506083921 | 50 | 304 | 0.0 | 0.0 | 0.00 | 0.00 | 0.00 | 83 | 1018.8 |
| 20260506083419 | 51 | 303 | 0.0 | 0.0 | 0.00 | 0.00 | 0.00 | 83 | 1019.2 |
| 20260506082916 | 51 | 304 | 0.0 | 0.0 | 0.00 | 0.00 | 0.00 | 83 | 1019.2 |
| 20260506082413 | 51 | 305 | 0.0 | 0.0 | 0.00 | 0.00 | 0.00 | 83 | 1019.2 |
| 20260506081908 | 51 | 306 | 0.0 | 0.0 | 0.00 | 0.00 | 0.00 | 83 | 1019.2 |
| 20260506081408 | 51 | 303 | 0.0 | 0.0 | 0.00 | 0.00 | 0.00 | 83 | 1019.2 |
| 20260506080904 | 51 | 308 | 0.0 | 0.0 | 0.00 | 0.00 | 0.00 | 83 | 1019.2 |
| 20260506080402 | 51 | 310 | 0.0 | 0.0 | 0.00 | 0.00 | 0.00 | 84 | 1019.2 |
| 20260506073345 | 52 | 300 | 0.0 | 0.0 | 0.00 | 0.00 | 0.00 | 83 | 1019.2 |
| 20260506072842 | 52 | 300 | 0.0 | 0.0 | 0.00 | 0.00 | 0.00 | 82 | 1019.2 |
| 20260506072339 | 53 | 301 | 0.0 | 0.0 | 0.00 | 0.00 | 0.00 | 81 | 1019.2 |
| 20260506071837 | 53 | 303 | 0.0 | 0.0 | 0.00 | 0.00 | 0.00 | 81 | 1019.2 |
| 20260506071335 | 53 | 306 | 0.0 | 1.0 | 0.00 | 0.00 | 0.00 | 80 | 1019.2 |
| 20260506070831 | 54 | 305 | 0.0 | 0.0 | 0.00 | 0.00 | 0.00 | 79 | 1019.2 |
| 20260506070328 | 54 | 316 | 2.0 | 2.0 | 0.00 | 0.00 | 0.00 | 79 | 1019.2 |
| 20260506062300 | 55 | 279 | 3.0 | 3.0 | 0.00 | 0.19 | 0.19 | 76 | 1018.8 |
| 20260506061755 | 55 | 268 | 1.0 | 2.0 | 0.00 | 0.19 | 0.19 | 75 | 1018.8 |
| 20260506061253 | 56 | 253 | 4.0 | 5.0 | 0.00 | 0.19 | 0.19 | 75 | 1018.5 |
| 20260506060751 | 56 | 275 | 2.0 | 3.0 | 0.00 | 0.19 | 0.19 | 75 | 1018.5 |
| 20260506060249 | 56 | 286 | 2.0 | 2.0 | 0.00 | 0.19 | 0.19 | 75 | 1018.5 |
| 20260506051220 | 57 | 256 | 3.0 | 3.0 | 0.00 | 0.19 | 0.19 | 73 | 1018.2 |
| 20260506050719 | 57 | 278 | 3.0 | 3.0 | 0.00 | 0.19 | 0.19 | 73 | 1018.2 |
| 20260506050215 | 57 | 275 | 3.0 | 3.0 | 0.00 | 0.19 | 0.19 | 72 | 1018.2 |
| 20260506044706 | 57 | 287 | 2.0 | 3.0 | 0.00 | 0.19 | 0.19 | 70 | 1018.2 |
| 20260506044203 | 57 | 291 | 3.0 | 3.0 | 0.00 | 0.19 | 0.19 | 69 | 1017.8 |
| 20260506043701 | 58 | 275 | 1.0 | 1.0 | 0.00 | 0.19 | 0.19 | 68 | 1017.5 |
| 20260506043158 | 58 | 280 | 1.0 | 1.0 | 0.00 | 0.19 | 0.19 | 67 | 1017.8 |
| 20260506042657 | 58 | 270 | 3.0 | 3.0 | 0.00 | 0.19 | 0.19 | 66 | 1017.8 |
| 20260506042155 | 58 | 280 | 3.0 | 3.0 | 0.00 | 0.19 | 0.19 | 66 | 1017.5 |
| 20260506041653 | 58 | 275 | 2.0 | 3.0 | 0.00 | 0.19 | 0.19 | 66 | 1017.5 |
| 20260506041149 | 58 | 291 | 0.0 | 0.0 | 0.00 | 0.19 | 0.19 | 66 | 1017.5 |
| 20260506040647 | 58 | 269 | 3.0 | 5.0 | 0.00 | 0.19 | 0.19 | 66 | 1017.1 |
| 20260506040144 | 58 | 270 | 2.0 | 2.0 | 0.00 | 0.19 | 0.19 | 66 | 1017.5 |
| 20260506035641 | 58 | 288 | 1.0 | 1.0 | 0.00 | 0.19 | 0.19 | 65 | 1017.1 |
| 20260506035137 | 59 | 280 | 3.0 | 5.0 | 0.00 | 0.19 | 0.19 | 65 | 1017.1 |
| 20260506034635 | 59 | 281 | 3.0 | 3.0 | 0.00 | 0.19 | 0.19 | 65 | 1017.1 |
| 20260506034131 | 59 | 316 | 1.0 | 2.0 | 0.00 | 0.19 | 0.19 | 64 | 1016.8 |
| 20260506033629 | 59 | 283 | 4.0 | 5.0 | 0.00 | 0.19 | 0.19 | 64 | 1016.8 |
| 20260506033126 | 59 | 254 | 5.0 | 7.0 | 0.00 | 0.19 | 0.19 | 64 | 1016.5 |
| 20260506032623 | 59 | 254 | 3.0 | 3.0 | 0.00 | 0.19 | 0.19 | 64 | 1016.8 |
| 20260506032120 | 59 | 249 | 3.0 | 3.0 | 0.00 | 0.19 | 0.19 | 64 | 1016.5 |
| 20260506031617 | 59 | 276 | 3.0 | 3.0 | 0.00 | 0.19 | 0.19 | 64 | 1016.5 |
| 20260506031114 | 59 | 264 | 4.0 | 6.0 | 0.00 | 0.19 | 0.19 | 64 | 1016.5 |
| 20260506030612 | 60 | 263 | 3.0 | 3.0 | 0.00 | 0.19 | 0.19 | 64 | 1016.8 |
| 20260506030109 | 60 | 252 | 3.0 | 5.0 | 0.00 | 0.19 | 0.19 | 64 | 1016.5 |
| 20260506025606 | 60 | 293 | 4.0 | 5.0 | 0.00 | 0.19 | 0.19 | 63 | 1016.5 |
| 20260506025102 | 60 | 291 | 5.0 | 6.0 | 0.00 | 0.19 | 0.19 | 63 | 1016.5 |
| 20260506024559 | 60 | 283 | 4.0 | 5.0 | 0.00 | 0.19 | 0.19 | 62 | 1016.0 |
| 20260506024056 | 60 | 302 | 4.0 | 5.0 | 0.00 | 0.19 | 0.19 | 62 | 1016.0 |
| 20260506023551 | 60 | 285 | 2.0 | 2.0 | 0.00 | 0.19 | 0.19 | 61 | 1016.0 |
| 20260506023049 | 60 | 294 | 5.0 | 6.0 | 0.00 | 0.19 | 0.19 | 60 | 1015.7 |
| 20260506022547 | 61 | 270 | 2.0 | 3.0 | 0.00 | 0.19 | 0.19 | 61 | 1015.7 |
| 20260506022044 | 61 | 285 | 5.0 | 6.0 | 0.00 | 0.19 | 0.19 | 60 | 1015.7 |
| 20260506021541 | 61 | 286 | 3.0 | 3.0 | 0.00 | 0.19 | 0.19 | 60 | 1015.7 |
| 20260506021039 | 62 | 269 | 4.0 | 5.0 | 0.00 | 0.19 | 0.19 | 59 | 1015.4 |
| 20260506020536 | 62 | 261 | 4.0 | 5.0 | 0.00 | 0.19 | 0.19 | 59 | 1015.7 |
| 20260506020033 | 62 | 287 | 3.0 | 3.0 | 0.00 | 0.19 | 0.19 | 59 | 1015.7 |
| 20260506015531 | 62 | 254 | 5.0 | 6.0 | 0.00 | 0.19 | 0.19 | 59 | 1015.4 |
| 20260506015027 | 62 | 278 | 2.0 | 2.0 | 0.00 | 0.19 | 0.19 | 59 | 1015.7 |
| 20260506014525 | 62 | 289 | 6.0 | 8.0 | 0.00 | 0.19 | 0.19 | 58 | 1015.4 |
| 20260506014021 | 62 | 299 | 4.0 | 5.0 | 0.00 | 0.19 | 0.19 | 58 | 1015.0 |
| 20260506013519 | 63 | 267 | 5.0 | 9.0 | 0.00 | 0.19 | 0.19 | 57 | 1015.4 |
| 20260506013015 | 63 | 296 | 7.0 | 8.0 | 0.00 | 0.19 | 0.19 | 57 | 1015.4 |
| 20260506012511 | 63 | 280 | 4.0 | 6.0 | 0.00 | 0.19 | 0.19 | 56 | 1015.0 |
| 20260506012009 | 64 | 313 | 7.0 | 8.0 | 0.00 | 0.19 | 0.19 | 56 | 1015.0 |
| 20260506011506 | 64 | 260 | 6.0 | 7.0 | 0.00 | 0.19 | 0.19 | 57 | 1015.4 |
| 20260506011002 | 64 | 279 | 4.0 | 6.0 | 0.00 | 0.19 | 0.19 | 57 | 1015.4 |
| 20260506010502 | 64 | 285 | 5.0 | 6.0 | 0.00 | 0.19 | 0.19 | 56 | 1015.0 |
| 20260506005957 | 64 | 265 | 6.0 | 7.0 | 0.00 | 0.19 | 0.19 | 56 | 1015.0 |
| 20260506005455 | 64 | 311 | 4.0 | 5.0 | 0.00 | 0.19 | 0.19 | 57 | 1015.0 |
| 20260506004950 | 64 | 310 | 4.0 | 5.0 | 0.00 | 0.19 | 0.19 | 57 | 1015.0 |
| 20260506004448 | 64 | 258 | 5.0 | 8.0 | 0.00 | 0.19 | 0.19 | 56 | 1015.0 |
| 20260506003944 | 64 | 297 | 5.0 | 8.0 | 0.00 | 0.19 | 0.19 | 56 | 1015.0 |